Terminal Aerodrome Forecast
Issued by NWS Upton, NY

Home | Current Version | Previous Version | Text Only | Print | Product List | Glossary On
Versions: 1 2 3 4 5 6 7 8 9 10 11 12 13 14 15 16 17 18 19 20 21 22 23 24 25 26 27 28 29 30 31 32 33 34 35
000
FTUS41 KOKX 281254 AAA
TAFLGA
TAF AMD
KLGA 281254Z 2813/2912 05015KT P6SM BKN010 BKN040
      TEMPO 2813/2815 SCT010
     FM281500 04015G19KT P6SM OVC020
     FM281700 05017G23KT P6SM -DZ OVC015
     FM282300 05014G23KT P6SM -DZ OVC010=

USA.gov is the U.S. government's official web portal to all federal, state and local government web resources and services.